Weather History for Morris, MN

Change the Weather History Date:

Thursday, December 5, 2013

  Actual Average Record
Temperature  
Mean Temperature 1 °F -  
Max Temperature 6 °F 29 °F 44 °F (2006)
Min Temperature -5 °F 14 °F -11 °F (2005)
Degree Days  
Heating Degree Days 64    
Moisture  
Dew Point -4 °F    
Average Humidity 77    
Maximum Humidity 85    
Minimum Humidity 71    
Precipitation  
Precipitation 0.00 in - - ()
Sea Level Pressure  
Sea Level Pressure 30.07 in    
Wind  
Wind Speed 21 mph (WNW)    
Max Wind Speed 28 mph    
Max Gust Speed 34 mph    
Visibility 7 miles    
Events Snow    
Averages and records for this station are not official NWS values.
T = Trace of Precipitation, MM = Missing Value Source: NWS Daily Summary

Daily Weather History Graph

Daily Weather History Graph

Search for Another Location

Airport:

Trip Planner

Search our weather history database for the weather conditions in past years. The results will help you decide how hot, cold, wet, or windy it might be!

Date:

Astronomy

Dec. 05, 2013 Rise Set
Actual Time 7:48 AM CST 4:40 PM CST
Civil Twilight 7:14 AM CST 5:14 PM CST
Nautical Twilight 6:37 AM CST 5:51 PM CST
Astronomical Twilight 6:01 AM CST 6:27 PM CST
Moon 10:05 AM CST (12/5) 8:07 PM CST (12/5)
Length of Visible Light 9h 59m
Length of Day
8h 52m
Waxing Crescent, 11% of the Moon is Illuminated
Dec 5
Waxing Crescent
Dec 9
First Quarter
Dec 17
Full
Dec 25
Last Quarter
Jan 1
New

Hourly Weather History & Observations

Time (CST) Temp. Windchill Dew Point Humidity Pressure Visibility Wind Dir Wind Speed Gust Speed Precip Events Conditions
12:03 AM 5.0 °F -16.7 °F 1.4 °F 85% 29.78 in 4.0 mi WNW 23.0 mph 29.9 mph N/A   Overcast
12:23 AM 5.0 °F -16.7 °F 1.4 °F 85% 29.79 in 4.0 mi WNW 23.0 mph 26.5 mph N/A   Overcast
12:43 AM 5.0 °F -15.2 °F 1.4 °F 85% 29.81 in 5.0 mi WNW 19.6 mph 27.6 mph N/A   Overcast
1:03 AM 6.8 °F -13.8 °F 1.4 °F 79% 29.82 in 4.0 mi WNW 21.9 mph 26.5 mph N/A   Haze
1:23 AM 6.8 °F -13.4 °F 1.4 °F 79% 29.83 in 3.0 mi WNW 20.7 mph 26.5 mph N/A   Haze
1:43 AM 6.8 °F -15.1 °F 1.4 °F 79% 29.83 in 3.0 mi WNW 25.3 mph 28.8 mph N/A   Haze
2:03 AM 5.0 °F -16.7 °F 1.4 °F 85% 29.84 in 3.0 mi WNW 23.0 mph - N/A   Overcast
2:23 AM 5.0 °F -17.1 °F 1.4 °F 85% 29.85 in 3.0 mi WNW 24.2 mph 31.1 mph N/A Snow Light Snow
2:43 AM 5.0 °F -17.5 °F -0.4 °F 78% 29.86 in 4.0 mi WNW 25.3 mph 28.8 mph N/A   Haze
3:03 AM 3.2 °F -19.0 °F -0.4 °F 85% 29.87 in 3.0 mi WNW 23.0 mph 34.5 mph N/A   Mostly Cloudy
3:23 AM 3.2 °F -20.3 °F -0.4 °F 85% 29.88 in 3.0 mi WNW 26.5 mph 32.2 mph N/A   Overcast
3:43 AM 3.2 °F -19.9 °F -2.2 °F 78% 29.88 in 2.5 mi WNW 25.3 mph 32.2 mph N/A   Haze
4:03 AM 1.4 °F -23.2 °F -2.2 °F 85% 29.89 in 2.0 mi WNW 27.6 mph 33.4 mph N/A Snow Light Snow
4:23 AM 1.4 °F -21.4 °F -2.2 °F 85% 29.91 in 3.0 mi WNW 23.0 mph 34.5 mph N/A   Haze
4:43 AM 1.4 °F -22.3 °F -2.2 °F 85% 29.92 in 3.0 mi WNW 25.3 mph - N/A   Haze
5:03 AM 1.4 °F -22.3 °F -4.0 °F 78% 29.92 in 3.0 mi WNW 25.3 mph 34.5 mph N/A   Haze
5:23 AM 1.4 °F -22.3 °F -4.0 °F 78% 29.93 in 5.0 mi WNW 25.3 mph 31.1 mph N/A   Haze
5:43 AM 1.4 °F -21.0 °F -4.0 °F 78% 29.93 in 7.0 mi WNW 21.9 mph 31.1 mph N/A   Scattered Clouds
6:03 AM 1.4 °F -21.0 °F -5.8 °F 72% 29.95 in 7.0 mi WNW 21.9 mph 28.8 mph N/A   Clear
6:23 AM -0.4 °F -23.8 °F -5.8 °F 78% 29.95 in 7.0 mi WNW 23.0 mph 29.9 mph N/A   Clear
6:43 AM -0.4 °F -23.8 °F -5.8 °F 78% 29.95 in 5.0 mi WNW 23.0 mph 29.9 mph N/A   Haze
7:03 AM -0.4 °F -23.3 °F -5.8 °F 78% 29.97 in 7.0 mi WNW 21.9 mph 28.8 mph N/A   Clear
7:23 AM -0.4 °F -24.7 °F -5.8 °F 78% 29.98 in 10.0 mi WNW 25.3 mph - N/A   Clear
7:43 AM -0.4 °F -24.3 °F -5.8 °F 78% 29.99 in 7.0 mi WNW 24.2 mph 32.2 mph N/A   Clear
8:03 AM -0.4 °F -23.3 °F -5.8 °F 78% 30.00 in 7.0 mi WNW 21.9 mph - N/A   Clear
8:23 AM -0.4 °F -22.8 °F -5.8 °F 78% 30.02 in 10.0 mi WNW 20.7 mph - N/A   Clear
8:43 AM -0.4 °F -24.3 °F -5.8 °F 78% 30.01 in 10.0 mi WNW 24.2 mph - N/A   Clear
9:03 AM 1.4 °F -21.0 °F -5.8 °F 72% 30.03 in 7.0 mi WNW 21.9 mph - N/A   Clear
9:23 AM 1.4 °F -21.9 °F -5.8 °F 72% 30.04 in 7.0 mi WNW 24.2 mph - N/A   Clear
9:43 AM 1.4 °F -21.0 °F -5.8 °F 72% 30.06 in 10.0 mi WNW 21.9 mph - N/A   Clear
10:03 AM 1.4 °F -20.5 °F -4.0 °F 78% 30.08 in 7.0 mi WNW 20.7 mph 28.8 mph N/A   Clear
10:23 AM 1.4 °F -20.5 °F -4.0 °F 78% 30.09 in 10.0 mi WNW 20.7 mph 26.5 mph N/A   Clear
10:43 AM 3.2 °F -17.6 °F -4.0 °F 72% 30.09 in 7.0 mi WNW 19.6 mph 32.2 mph N/A   Clear
11:03 AM 3.2 °F -19.5 °F -4.0 °F 72% 30.09 in 5.0 mi WNW 24.2 mph 31.1 mph N/A   Haze
11:23 AM 3.2 °F -19.9 °F -4.0 °F 72% 30.10 in 7.0 mi WNW 25.3 mph 31.1 mph N/A   Clear
11:43 AM 3.2 °F -19.0 °F -2.2 °F 78% 30.11 in 5.0 mi WNW 23.0 mph 27.6 mph N/A   Haze
12:03 PM 3.2 °F -19.9 °F -2.2 °F 78% 30.11 in 7.0 mi WNW 25.3 mph 31.1 mph N/A   Scattered Clouds
12:23 PM 3.2 °F -19.0 °F -2.2 °F 78% 30.11 in 5.0 mi WNW 23.0 mph 31.1 mph N/A   Haze
12:43 PM 3.2 °F -18.6 °F -2.2 °F 78% 30.11 in 7.0 mi WNW 21.9 mph - N/A   Scattered Clouds
1:03 PM 3.2 °F -18.6 °F -2.2 °F 78% 30.12 in 5.0 mi WNW 21.9 mph 25.3 mph N/A   Haze
1:23 PM 3.2 °F -18.1 °F -2.2 °F 78% 30.12 in 5.0 mi WNW 20.7 mph 26.5 mph N/A   Haze
1:43 PM 5.0 °F -15.7 °F -2.2 °F 72% 30.11 in 7.0 mi WNW 20.7 mph 27.6 mph N/A   Scattered Clouds
2:03 PM 5.0 °F -15.7 °F -2.2 °F 72% 30.11 in 10.0 mi WNW 20.7 mph - N/A   Scattered Clouds
2:23 PM 5.0 °F -15.7 °F -2.2 °F 72% 30.12 in 10.0 mi WNW 20.7 mph 26.5 mph N/A   Scattered Clouds
2:43 PM 5.0 °F -15.2 °F -2.2 °F 72% 30.12 in 10.0 mi WNW 19.6 mph - N/A   Clear
3:03 PM 3.2 °F -14.6 °F -2.2 °F 78% 30.14 in 7.0 mi WNW 13.8 mph - N/A   Scattered Clouds
3:23 PM 3.2 °F -16.5 °F -2.2 °F 78% 30.14 in 10.0 mi NW 17.3 mph 21.9 mph N/A   Scattered Clouds
3:43 PM 3.2 °F -16.5 °F -2.2 °F 78% 30.15 in 10.0 mi WNW 17.3 mph 26.5 mph N/A   Scattered Clouds
4:03 PM 3.2 °F -15.9 °F -2.2 °F 78% 30.15 in 10.0 mi NW 16.1 mph - N/A   Clear
4:23 PM 1.4 °F -18.2 °F -4.0 °F 78% 30.15 in 10.0 mi WNW 16.1 mph 21.9 mph N/A   Scattered Clouds
4:43 PM 1.4 °F -16.9 °F -5.8 °F 72% 30.17 in 10.0 mi WNW 13.8 mph - N/A   Scattered Clouds
5:03 PM -0.4 °F -19.9 °F -5.8 °F 78% 30.17 in 10.0 mi NW 15.0 mph - N/A   Clear
5:23 PM -0.4 °F -21.7 °F -5.8 °F 78% 30.18 in 10.0 mi WNW 18.4 mph - N/A   Clear
5:43 PM -0.4 °F -18.4 °F -5.8 °F 78% 30.19 in 10.0 mi WNW 12.7 mph 19.6 mph N/A   Clear
6:03 PM -0.4 °F -19.2 °F -7.6 °F 72% 30.20 in 10.0 mi WNW 13.8 mph 19.6 mph N/A   Clear
6:23 PM -2.2 °F -20.7 °F -7.6 °F 78% 30.21 in 10.0 mi WNW 12.7 mph - N/A   Clear
6:43 PM -2.2 °F -21.5 °F -7.6 °F 78% 30.22 in 10.0 mi WNW 13.8 mph - N/A   Clear
7:03 PM -2.2 °F -21.5 °F -7.6 °F 78% 30.22 in 10.0 mi WNW 13.8 mph - N/A   Clear
7:23 PM -2.2 °F -21.5 °F -7.6 °F 78% 30.24 in 10.0 mi WNW 13.8 mph - N/A   Clear
7:43 PM -2.2 °F -19.9 °F -7.6 °F 78% 30.25 in 10.0 mi WNW 11.5 mph - N/A   Clear
8:03 PM -2.2 °F -22.2 °F -7.6 °F 78% 30.25 in 10.0 mi WNW 15.0 mph - N/A   Clear
8:23 PM -2.2 °F -21.5 °F -9.4 °F 71% 30.26 in 10.0 mi WNW 13.8 mph - N/A   Clear
8:43 PM -2.2 °F -19.9 °F -9.4 °F 71% 30.27 in 10.0 mi WNW 11.5 mph - N/A   Clear
9:03 PM -4.0 °F -22.1 °F -9.4 °F 78% 30.27 in 10.0 mi West 11.5 mph - N/A   Clear
9:23 PM -4.0 °F -22.1 °F -9.4 °F 78% 30.28 in 10.0 mi WNW 11.5 mph - N/A   Clear
9:43 PM -2.2 °F -18.0 °F -9.4 °F 71% 30.28 in 10.0 mi WNW 9.2 mph - N/A   Clear
10:03 PM -2.2 °F -18.0 °F -9.4 °F 71% 30.29 in 10.0 mi West 9.2 mph - N/A   Clear
10:23 PM -2.2 °F -18.9 °F -9.4 °F 71% 30.29 in 10.0 mi WNW 10.4 mph - N/A   Clear
10:43 PM -2.2 °F -19.9 °F -9.4 °F 71% 30.30 in 10.0 mi WNW 11.5 mph - N/A   Clear
11:03 PM -2.2 °F -21.5 °F -9.4 °F 71% 30.30 in 10.0 mi WNW 13.8 mph - N/A   Clear
11:23 PM -4.0 °F -23.0 °F -9.4 °F 78% 30.30 in 10.0 mi WNW 12.7 mph - N/A   Clear
11:43 PM -5.8 °F -24.4 °F -9.4 °F 84% 30.31 in 10.0 mi WNW 11.5 mph - N/A   Clear